Regional Weather Roundup
Issued by NWS State College, PA

Home | Current Version | Previous Version | Graphics & Text | Print | Product List | Glossary On
Versions: 1 2 3 4 5 6 7 8 9 10 11 12 13 14 15 16 17 18 19 20 21 22 23 24 25 26 27 28 29 30 31 32 33 34 35 36 37 38 39 40 41 42 43 44 45 46 47 48 49 50
000
ASUS41 KCTP 162203
RWRCTP

REGIONAL WEATHER ROUNDUP
NATIONAL WEATHER SERVICE STATE COLLEGE PA
500 PM EST TUE JAN 16 2018

Note: "fair" indicates few or no clouds below 12,000 feet with no
significant weather and/or obstructions to visibility.

* = STATION THAT DOES NOT REPORT PRECIPITATION /E.G. RAIN...SNOW...ETC/
    THUNDER OR FOG.

PAZ002>004-007>009-013>016-020>023-029>032-162300-
WESTERN PENNSYLVANIA

CITY           SKY/WX    TMP DP  RH WIND       PRES   REMARKS
ERIE           LGT SNOW  13   8  81 W12       30.39S VSB 3/4 WCI  -1
MEADVILLE      MOCLDY    14   6  70 W7        30.32R WCI   4
FRANKLIN*      LGT SNOW  17  12  80 W9        30.31R WCI   6
NEW CASTLE     CLOUDY    13   7  77 SW9       30.39R WCI   1
BEAVER COUNTY  LGT SNOW N/A N/A N/A W8        30.36R
BUTLER*        LGT SNOW  18  14  84 W10       30.34R FOG     WCI   6
PITTSBURGH INT LGT SNOW  17  13  84 W7        30.35R FOG     WCI   8
PITTSBURGH     LGT SNOW  19  14  81 W6        30.34R VSB 3/4 WCI  11
INDIANA*       FOG       28  27  93 W7        30.33S VSB 1/2
LATROBE        LGT SNOW  25  23  93 W9        30.34R VSB 1
WASHINGTON CO* LGT SNOW  18  13  80 W7        30.39R WCI   9
$$

PAZ004>006-010>012-017>019-024>028-033>037-041-042-045-046-049>053-162300-
CENTRAL PENNSYLVANIA

CITY           SKY/WX    TMP DP  RH WIND       PRES   REMARKS
BRADFORD       LGT SNOW  25  23  92 VRB3      30.23R VSB 3/4
DUBOIS         SNOW      25  22  88 SW6       30.25S VSB 1/2
CLEARFIELD     LGT SNOW  27  26  96 CALM      30.28S VSB 3/4
JOHNSTOWN      LGT SNOW  25  23  92 W6        30.22S VSB 1
ALTOONA        LGT SNOW  26  24  92 CALM      30.29S VSB 1
STATE COLLEGE  LGT SNOW  25  23  93 CALM      30.32S VSB 3/4
WILLIAMSPORT   SNOW      28  27  96 CALM      30.36S VSB 1/2
SELINSGROVE    SNOW      29  28  96 CALM      30.37S VSB 1/2
FT INDIANTOWN  LGT SNOW  30  30 100 CALM      30.36S VSB 1
CAPITAL CITY   LGT SNOW  33  31  92 CALM      30.37R VSB 3/4
HARRISBURG     LGT SNOW  32  31  96 CALM      30.37R VSB 3/4
YORK           CLOUDY    33  28  81 CALM      30.35S
$$

PAZ038>040-043-044-047-048-054-055-060>062-067>071-162300-
EASTERN PENNSYLVANIA

CITY           SKY/WX    TMP DP  RH WIND       PRES   REMARKS
SCRANTON       LGT SNOW  29  28  96 CALM      30.33S VSB 3/4
MOUNT POCONO   LGT SNOW  27  26  96 S3        30.28S FOG
ALLENTOWN      CLOUDY    32  27  81 NE3       30.38S HAZE
QUAKERTOWN*    MOCLDY    32  28  86 MISG      30.37S
READING        CLOUDY    32  31  96 N3        30.36F
LANCASTER      CLOUDY    32  31  96 NE3       30.37R FOG
COATESVILLE    FAIR      37  30  75 CALM      30.36S
POTTSTOWN      NOT AVBL
BLUE BELL      FAIR      34  30  86 CALM      30.38S
DOYLESTOWN     FAIR      37  28  70 CALM      30.36R
WILLOW GROVE   NOT AVBL
NORTH PHILA    MOCLDY    40  29  64 NE5       30.38S
PHILADELPHIA   CLOUDY    43  30  60 NW3       30.37F
$$




USA.gov is the U.S. government's official web portal to all federal, state and local government web resources and services.